Station OLCN6 - Olcott Harbor, NY Image indicating link to RSS feed of recent meteorological observations for station OLCN6


Conditions at OLCN6 as of
(8:00 pm EDT on 05/23/2024)
0000 GMT on 05/24/2024:
     

Click on the graph icon in the table below to see a time series plot of the last five days of that observation.

5-day plot - Wind Direction Wind Direction (WDIR): SW ( 230 deg true )
5-day plot - Wind Speed Wind Speed (WSPD): 8.0 kts
5-day plot - Wind Gust Wind Gust (GST): 12.0 kts
5-day plot - Atmospheric Pressure Atmospheric Pressure (PRES):29.85 in
5-day plot - Pressure Tendency Pressure Tendency (PTDY):-0.02 in ( Falling )
5-day plot - Air Temperature Air Temperature (ATMP): 73.4 °F
5-day plot - Wind Speed at 10 Meters Wind Speed at 10 meters (WSPD10M): 7.8 kts
5-day plot - Wind Speed at 20 Meters Wind Speed at 20 meters (WSPD20M): 9.7 kts
5-day plot -  Wind Speed, Wind Gust and Atmospheric Pressure Combined plot of Wind Speed, Gust, and Air Pressure
Previous observations
TIME
(EDT)
5-day plot - Wind Direction
WDIR
 
5-day plot - Wind Speed
WSPD
kts
5-day plot - Wind Gust
GST
kts
5-day plot - Wave Height
WVHT
ft
5-day plot - Dominant Wave Period
DPD
sec
5-day plot - Average Wave Period
APD
sec
5-day plot - Mean Wave Direction
MWD
 
5-day plot - Atmospheric Pressure
PRES
in
5-day plot - Pressure Tendency
PTDY
in
5-day plot - Air Temperature
ATMP
°F
5-day plot - Water Temperature
WTMP
°F
5-day plot - Dew Point
DEWP
°F
5-day plot - Salinity
SAL
psu
5-day plot - Visibility
VIS
nmi
5-day plot - Tide (above MLLW)
TIDE
ft
2024-05-23 07:50 pm SW 8.0 13.0----29.85- 73.8-----
2024-05-23 07:40 pm SW 8.0 12.0----29.86- 74.1-----
2024-05-23 07:30 pm SW 6.0 11.1----29.86- 74.5-----
2024-05-23 07:20 pm SW 9.9 14.0----29.86- 74.7-----
2024-05-23 07:10 pmWSW 7.0 15.9----29.86- 74.7-----
2024-05-23 07:00 pm SW 8.9 20.0----29.86-0.02 74.8-----
2024-05-23 06:50 pmWSW 8.9 15.0----29.86- 74.8-----
2024-05-23 06:40 pm SW 9.9 15.9----29.86- 74.8-----
2024-05-23 06:30 pm SW 11.1 20.0----29.86- 74.8-----
2024-05-23 06:20 pm SW 11.1 18.1----29.86- 74.8-----
2024-05-23 06:10 pm SW 9.9 22.9----29.87- 74.8-----
2024-05-23 06:00 pmWSW 13.0 17.1----29.87-0.03 74.7-----
2024-05-23 05:50 pmWSW 11.1 18.1----29.86- 75.0-----
2024-05-23 05:40 pmWSW 9.9 19.0----29.87- 75.0-----
2024-05-23 05:30 pm SW 13.0 18.1----29.86- 75.0-----
2024-05-23 05:20 pmWSW 15.0 21.0----29.87- 74.8-----
2024-05-23 05:10 pmWSW 14.0 21.0----29.86- 74.8-----
2024-05-23 05:00 pmWSW 12.0 20.0----29.87-0.04 74.7-----
2024-05-23 04:50 pmWSW 14.0 20.0----29.87- 74.7-----
2024-05-23 04:40 pmWSW 15.9 20.0----29.87- 74.5-----
2024-05-23 04:30 pm SW 13.0 21.0----29.88- 74.7-----
2024-05-23 04:20 pmWSW 9.9 17.1----29.88- 74.7-----
2024-05-23 04:10 pm SW 11.1 22.0----29.88- 74.1-----
2024-05-23 04:00 pmWSW 13.0 18.1----29.88-0.03 74.1-----
2024-05-23 03:50 pm SW 13.0 17.1----29.88- 74.5-----
2024-05-23 03:40 pm W 13.0 17.1----29.88- 74.1-----
2024-05-23 03:30 pmWSW 12.0 18.1----29.88- 74.1-----
2024-05-23 03:20 pmWSW 11.1 19.0----29.89- 73.8-----
2024-05-23 03:10 pm SW 12.0 18.1----29.90- 73.9-----
2024-05-23 03:00 pm SW 11.1 17.1----29.90-0.03 71.4-----
2024-05-23 02:50 pm W 8.0 11.1----29.90- 68.2-----
2024-05-23 02:40 pm W 8.0 8.9----29.90- 66.9-----
2024-05-23 02:30 pm W 7.0 8.0----29.90- 66.6-----
2024-05-23 02:20 pm W 7.0 8.0----29.90- 66.2-----
2024-05-23 02:10 pm W 6.0 7.0----29.90- 66.6-----
2024-05-23 02:00 pm W 7.0 8.0----29.91-0.03 66.2-----
2024-05-23 01:50 pm W 7.0 8.0----29.91- 66.4-----
2024-05-23 01:40 pm W 7.0 8.0----29.91- 65.7-----
2024-05-23 01:30 pm W 6.0 7.0----29.90- 65.1-----
2024-05-23 01:20 pm W 6.0 7.0----29.91- 64.4-----
2024-05-23 01:10 pm W 5.1 8.0----29.91- 64.6-----
2024-05-23 01:00 pm W 5.1 8.9----29.91-0.03 64.6-----
2024-05-23 12:50 pm W 8.0 11.1----29.92- 64.9-----
2024-05-23 12:40 pm W 6.0 7.0----29.92- 63.7-----
2024-05-23 12:30 pm W 7.0 8.9----29.93- 63.1-----
2024-05-23 12:20 pm W 9.9 11.1----29.93- 63.3-----
2024-05-23 12:10 pm W 9.9 11.1----29.93- 63.7-----
2024-05-23 12:00 pm W 8.9 9.9----29.93+0.00 64.2-----
2024-05-23 11:50 am W 8.0 9.9----29.93- 64.8-----
2024-05-23 11:40 am W 8.9 9.9----29.93- 64.4-----
2024-05-23 11:30 am W 8.9 9.9----29.93- 64.0-----
2024-05-23 11:20 am W 8.9 9.9----29.94- 63.7-----
2024-05-23 11:10 am W 9.9 11.1----29.94- 63.9-----
2024-05-23 11:00 am W 8.9 12.0----29.94+0.01 64.2-----
2024-05-23 10:50 am W 8.9 13.0----29.94- 64.6-----
2024-05-23 10:40 am W 8.9 13.0----29.94- 64.0-----
2024-05-23 10:30 am W 13.0 14.0----29.94- 64.6-----
2024-05-23 10:20 am W 12.0 15.0----29.94- 64.9-----
2024-05-23 10:10 am W 12.0 15.9----29.94- 65.8-----
2024-05-23 10:00 am W 11.1 14.0----29.94+0.02 65.8-----
2024-05-23 09:50 am W 12.0 15.0----29.94- 66.0-----
2024-05-23 09:40 am W 12.0 14.0----29.94- 66.0-----
2024-05-23 09:30 am W 12.0 14.0----29.94- 66.0-----
2024-05-23 09:20 am W 9.9 12.0----29.94- 66.6-----
2024-05-23 09:10 am W 9.9 12.0----29.93- 66.2-----
2024-05-23 09:00 amWSW 7.0 12.0----29.93+0.04 66.9-----
2024-05-23 08:50 amWSW 8.0 12.0----29.93- 66.7-----
2024-05-23 08:40 amWSW 8.9 13.0----29.93- 66.4-----
2024-05-23 08:30 amWSW 8.0 9.9----29.92- 66.0-----
2024-05-23 08:20 amWSW 6.0 11.1----29.92- 65.7-----
2024-05-23 08:10 am SW 7.0 8.9----29.92- 65.5-----
2024-05-23 08:00 am SW 8.0 9.9----29.93+0.05 64.9-----
2024-05-23 07:50 am SW 7.0 8.9----29.93- 64.2-----
2024-05-23 07:40 am SW 7.0 8.9----29.93- 63.7-----
2024-05-23 07:30 amSSW 5.1 8.9----29.93- 63.1-----
2024-05-23 07:20 amSSW 7.0 8.9----29.92- 62.8-----
2024-05-23 07:10 amSSW 5.1 8.0----29.92- 62.6-----
2024-05-23 07:00 amSSW 7.0 8.9----29.92+0.07 62.2-----
2024-05-23 06:50 amSSW 6.0 8.9----29.92- 62.2-----
2024-05-23 06:40 amSSW 5.1 8.0----29.91- 61.9-----
2024-05-23 06:30 amSSW 5.1 8.0----29.90- 61.7-----
2024-05-23 06:20 am SW 6.0 8.0----29.90- 61.0-----
2024-05-23 06:10 am SW 6.0 7.0----29.89- 60.6-----
2024-05-23 06:00 am SW 5.1 7.0----29.89+0.05 60.4-----
2024-05-23 05:50 amSSW 5.1 6.0----29.89- 60.6-----
2024-05-23 05:40 amSSW 5.1 7.0----29.89- 60.6-----
2024-05-23 05:30 am SW 5.1 8.0----29.89- 61.0-----
2024-05-23 05:20 am SW 4.1 7.0----29.89- 61.0-----
2024-05-23 05:10 am S 5.1 7.0----29.89- 62.1-----
2024-05-23 05:00 am SW 4.1 8.0----29.88+0.03 62.6-----
2024-05-23 04:50 am SW 6.0 9.9----29.88- 62.6-----
2024-05-23 04:40 amWSW 7.0 12.0----29.88- 63.1-----
2024-05-23 04:30 amWSW 8.9 14.0----29.87- 63.5-----
2024-05-23 04:20 am W 9.9 12.0----29.86- 63.0-----
2024-05-23 04:10 am W 8.9 12.0----29.86- 62.6-----
2024-05-23 04:00 amWSW 8.0 11.1----29.85+0.06 61.9-----
2024-05-23 03:50 am W 8.9 12.0----29.85- 61.7-----
2024-05-23 03:40 am W 8.0 9.9----29.84- 61.3-----
2024-05-23 03:30 am W 7.0 8.0----29.83- 60.8-----
2024-05-23 03:20 amWNW 5.1 6.0----29.82- 61.2-----
2024-05-23 03:10 am W 5.1 9.9----29.83- 61.3-----
2024-05-23 03:00 am W 8.9 11.1----29.84+0.09 61.5-----
2024-05-23 02:50 am W 11.1 13.0----29.84- 61.3-----
2024-05-23 02:40 am W 9.9 13.0----29.85- 61.5-----
2024-05-23 02:30 am W 13.0 18.1----29.85- 61.9-----
2024-05-23 02:20 amWNW 17.1 19.0----29.84- 62.2-----
2024-05-23 02:10 am W 15.9 19.0----29.84- 62.2-----
2024-05-23 02:00 am W 15.9 25.1----29.85+0.11 62.2-----
2024-05-23 01:50 am W 18.1 42.9----29.85- 62.4-----
2024-05-23 01:40 am W 18.1 21.0----29.84- 63.0-----
2024-05-23 01:30 am W 19.0 22.0----29.84- 63.5-----
2024-05-23 01:20 am W 20.0 24.1----29.82- 63.9-----
2024-05-23 01:10 amWNW 19.0 22.0----29.80- 64.2-----
2024-05-23 01:00 am W 22.9 32.1----29.79+0.06 66.9-----
2024-05-23 12:50 am W 18.1 22.9----29.78- 73.2-----
2024-05-23 12:40 am W 17.1 21.0----29.77- 72.9-----
2024-05-23 12:30 amWSW 13.0 19.0----29.77- 74.8-----
2024-05-23 12:20 am SW 14.0 22.0----29.75- 75.2-----
2024-05-23 12:10 am SW 14.0 21.0----29.75- 75.6-----
2024-05-23 12:00 am SW 11.1 19.0----29.75+0.03 75.6-----
2024-05-22 11:50 pmSSW 13.0 21.0----29.74- 76.6-----
2024-05-22 11:40 pmSSW 8.9 15.9----29.74- 76.5-----
2024-05-22 11:30 pm SW 11.1 15.0----29.74- 76.5-----
2024-05-22 11:20 pmSSW 9.9 15.9----29.74- 76.6-----
2024-05-22 11:10 pmSSW 8.0 15.0----29.74- 76.3-----
2024-05-22 11:00 pmSSW 8.9 15.0----29.74+0.03 75.9-----
2024-05-22 10:50 pmSSW 8.9 15.0----29.74- 75.7-----
2024-05-22 10:40 pmSSW 8.0 13.0----29.74- 75.4-----
2024-05-22 10:30 pmSSW 8.0 14.0----29.73- 75.6-----
2024-05-22 10:20 pmSSW 8.0 12.0----29.72- 75.2-----
2024-05-22 10:10 pmSSW 7.0 12.0----29.72- 75.4-----
2024-05-22 10:00 pmSSW 8.0 15.0----29.73+0.01 75.4-----
2024-05-22 09:50 pm S 8.0 14.0----29.72- 75.6-----
2024-05-22 09:40 pmSSW 9.9 15.0----29.72- 75.7-----
2024-05-22 09:30 pmSSW 8.9 14.0----29.72- 75.9-----
2024-05-22 09:20 pm SW 8.9 17.1----29.73- 76.3-----
2024-05-22 09:10 pmSSW 9.9 15.9----29.73- 76.5-----
2024-05-22 09:00 pm SW 9.9 15.0----29.72-0.01 76.5-----
2024-05-22 08:50 pmSSW 9.9 13.0----29.72- 76.6-----
2024-05-22 08:40 pmSSW 8.9 12.0----29.71- 77.0-----
2024-05-22 08:30 pmSSW 8.0 17.1----29.71- 77.4-----
2024-05-22 08:20 pmSSW 8.0 14.0----29.71- 77.5-----
2024-05-22 08:10 pmSSW 11.1 17.1----29.71- 78.1-----
2024-05-22 08:00 pm SW 9.9 18.1----29.71-0.02 78.3-----
2024-05-22 07:50 pm SW 8.9 15.0----29.72- 78.6-----